Вернуться в каталог

GALILEO 12 (269)

АктивенНавигацияMEO
NORAD 41174·PAYLOAD·🇪🇺 EU

Запущен Dec 17, 2015 с Guiana Space Centre

Loading…

Ближайшие Пролёты (ближайшие 24 часа)

TLE

СвежийSource: CelesTrak SupGP

Эпоха: Sep 13, 2026, 23:59 UTC

1 41174C 15079A   26256.99979167  .00000000  00000+0  00000+0 0  2561
2 41174  55.8833  98.8237 0003519  18.6974 218.4900  1.70474174    11

Отслеживайте GALILEO 12 (269) в реальном времени с AllMySat

Download on the App Store